Kuchera_Ratio
0.0 0.0 0.0 0.0 0.0 0.0 0.0 0.0 0.0 0.0 0.0 0.0 0.0 0.0 0.0 0.0 0.0 0.0 0.0 0.0 0.0 2.7 0.0 0.0 0.0 2.0 2.2 4.6 9.0 4.0 5.4 4.2 7.2 12.5 13.4 15.0 14.8 14.3 14.5 14.1 15.9 16.1 16.2 17.2 15.4 18.6 20.6 6.4 6.8 15.0 12.2 6.8 6.2 6.4
0.0 0.0 0.0 0.0 0.0 0.0 0.0 0.0 0.0 0.0 0.0 0.0 0.0 0.0 0.0 0.0 0.0 0.0 0.0 0.0 0.0 0.0 0.0 0.0 0.0 0.0 0.0 0.0 2.8 4.0 5.2 8.6 10.8 12.3 11.6 9.6 13.4 11.8 13.0 17.0 8.8 16.4 14.2 15.2 15.2 15.2 8.2 7.2 10.2 6.0 4.2 6.6 5.8 5.0
0.0 0.0 0.0 0.0 0.0 0.0 0.0 0.0 0.0 0.0 0.0 0.0 0.0 0.0 0.0 0.0 0.0 0.0 0.0 0.0 0.0 0.0 0.0 0.0 0.0 0.0 0.0 0.0 0.0 1.0 0.6 3.0 4.0 4.8 8.4 10.0 13.8 11.2 15.1 14.2 11.4 8.2 4.6 12.2 12.7 9.6 9.2 7.0 2.6 1.2 1.2 3.6 1.6 0.8
0.0 0.0 0.0 0.0 0.0 0.0 0.0 0.0 0.0 0.0 0.0 0.0 0.0 0.0 0.0 0.0 0.0 0.0 0.0 0.0 0.0 0.0 2.5 0.0 0.0 0.0 0.0 0.0 0.0 0.0 0.0 0.0 0.6 0.8 7.4 9.0 10.2 4.4 11.4 10.0 10.6 9.0 5.8 9.6 10.2 5.8 3.4 1.2 1.8 1.8 0.6 0.0 0.8 0.0
0.0 0.0 0.0 0.0 0.0 0.0 0.0 0.0 0.0 0.0 0.0 0.0 0.0 0.0 0.0 0.0 0.0 0.0 0.0 0.0 0.0 0.0 2.5 0.6 0.0 0.0 0.0 0.0 0.0 0.0 0.0 0.0 1.6 4.4 7.2 10.0 5.6 4.4 5.2 5.0 9.0 6.0 9.8 10.4 12.3 4.8 6.0 3.8 0.0 0.0 0.6 1.6 0.8 1.8
0.0 0.0 0.0 0.0 0.0 0.0 0.0 0.0 0.0 0.0 0.0 0.0 0.0 0.0 0.0 0.0 0.0 0.0 0.0 0.0 0.0 0.0 0.0 5.3 0.0 0.0 0.0 0.0 0.0 0.0 0.0 0.0 2.8 5.4 7.4 3.2 3.6 3.8 9.0 10.6 3.0 2.6 1.8 1.4 2.2 0.0 0.0 0.0 0.0 0.0 0.0 0.0 0.0 0.8
0.0 0.0 0.0 0.0 0.0 0.0 0.0 0.0 0.0 0.0 0.0 0.0 0.0 0.0 0.0 0.0 0.0 0.0 0.0 0.0 0.0 0.0 0.0 4.0 2.5 0.0 0.0 0.0 0.0 0.0 0.0 1.6 0.6 3.3 4.2 2.6 2.2 2.2 7.4 10.8 2.0 0.0 0.0 0.0 0.0 0.0 0.0 0.0 0.0 0.0 0.0 0.0 0.0 0.0
0.0 0.0 0.0 0.0 0.0 0.0 0.0 0.0 0.0 0.0 0.0 0.0 0.0 0.0 0.0 0.0 0.0 0.0 0.0 0.0 0.0 0.0 0.0 7.9 5.3 1.0 0.0 1.2 1.2 1.7 1.2 1.0 3.4 4.8 4.0 3.4 2.0 3.8 10.0 1.4 0.4 0.0 0.0 0.0 0.0 0.0 0.0 0.0 0.0 0.0 0.0 0.0 0.0 0.6
0.0 0.0 0.0 0.0 0.0 0.0 0.0 0.0 0.0 0.0 0.0 0.0 0.0 0.0 0.0 0.0 0.0 0.2 0.0 0.0 0.0 0.0 1.3 4.9 8.4 9.5 0.2 3.4 3.0 1.8 2.3 4.9 2.6 5.4 4.6 4.2 6.8 10.4 1.8 0.0 0.0 0.0 0.0 0.0 0.0 0.0 0.0 0.0 0.0 0.0 0.0 0.0 0.0 0.2
0.0 0.0 0.0 0.0 0.0 0.0 0.0 0.0 0.0 0.0 0.0 0.0 0.0 0.0 2.3 2.4 0.0 0.0 0.0 0.0 0.0 1.5 2.8 4.5 6.5 5.8 2.2 4.2 5.2 5.6 5.3 9.0 8.4 5.6 4.0 6.8 4.8 1.0 0.0 0.0 0.0 0.0 0.0 0.0 0.0 0.0 0.0 0.0 0.0 0.0 0.0 0.0 0.0 0.0
0.0 0.0 0.0 0.0 0.0 0.0 0.0 0.0 0.0 0.0 0.0 0.0 0.1 3.2 1.2 0.0 0.7 1.8 3.1 3.2 6.4 6.5 5.3 6.0 5.2 5.4 1.6 5.0 6.4 8.2 9.0 7.6 11.2 6.2 6.6 9.0 6.4 1.6 0.0 0.0 0.0 0.0 0.0 0.0 0.0 0.0 0.0 0.0 0.0 0.0 0.0 0.0 0.0 0.0
0.0 0.0 0.0 0.0 0.0 0.0 0.0 0.0 0.0 0.0 0.0 0.0 0.0 0.2 0.9 4.1 5.2 5.4 9.4 10.2 10.0 8.0 7.4 5.6 4.6 2.6 4.0 3.0 4.4 7.8 7.4 7.2 11.6 5.6 9.4 12.0 4.8 0.0 0.0 0.0 0.0 0.0 0.0 0.0 0.0 0.0 0.0 0.0 0.0 0.0 0.0 0.0 0.0 0.0
0.0 0.0 0.0 0.0 0.0 0.0 0.0 0.0 0.0 0.0 0.0 0.0 0.8 4.9 5.9 8.8 9.3 10.5 12.4 12.4 11.8 8.0 7.0 6.0 6.8 4.0 4.4 2.6 7.8 6.8 10.0 11.6 6.6 12.4 11.2 6.6 1.6 0.0 0.0 0.0 0.0 0.0 0.0 0.0 0.0 0.0 0.0 0.0 0.0 0.0 0.0 0.0 0.0 0.0
0.0 0.0 0.0 0.0 0.0 0.0 0.0 0.0 0.0 0.0 0.0 3.3 4.4 8.4 9.1 11.0 9.3 7.9 8.1 7.0 4.6 5.2 6.5 4.4 6.4 4.4 6.6 6.2 8.2 10.6 7.8 7.6 13.8 14.5 12.2 5.1 0.0 0.0 0.0 0.0 0.0 0.0 0.0 0.0 0.0 0.0 0.0 0.0 0.0 0.0 0.0 0.0 0.0 0.0
0.0 0.0 0.0 0.0 0.0 0.0 0.0 0.0 0.0 0.0 1.8 6.5 6.9 9.4 9.5 6.6 5.8 5.8 5.4 5.4 5.4 4.8 4.6 4.8 5.8 4.4 7.6 9.6 8.2 9.0 13.1 14.7 12.0 11.8 5.2 0.0 0.0 0.0 0.0 0.0 0.0 0.0 0.0 0.0 0.0 0.0 0.0 0.0 0.0 0.0 0.0 0.0 0.0 0.9
0.0 0.0 0.0 0.0 0.0 0.0 0.0 0.0 0.0 0.2 4.3 7.4 8.2 10.2 9.4 8.8 9.6 8.7 7.0 5.9 4.8 4.8 3.5 2.6 7.8 10.9 10.0 8.2 11.4 13.3 12.6 13.3 7.4 5.0 0.6 0.0 0.0 0.0 0.0 0.0 0.0 0.0 0.0 0.0 0.0 0.0 0.0 0.0 0.0 0.0 0.0 0.0 0.0 0.4
0.0 1.4 0.0 0.0 0.0 0.0 0.0 0.0 0.9 4.7 6.0 8.6 10.6 8.0 7.4 8.0 7.0 5.6 4.8 4.0 3.6 3.4 5.2 6.8 11.0 10.2 9.6 12.4 12.2 7.8 11.0 4.4 2.2 0.3 0.0 0.0 0.0 0.0 0.0 0.0 0.0 0.0 0.0 0.0 0.0 0.0 0.0 0.0 0.0 0.0 0.0 0.0 0.0 0.0
0.4 0.0 0.0 0.0 0.0 0.0 2.4 2.1 4.7 8.2 11.0 9.2 11.2 9.4 8.2 6.2 6.3 5.6 4.4 3.6 3.4 3.4 4.2 5.0 5.4 10.6 12.8 12.2 10.8 4.4 4.2 1.6 1.1 0.0 0.0 0.0 0.0 0.0 0.0 0.0 0.0 0.0 0.0 0.0 0.0 0.0 0.0 0.0 0.0 0.0 0.0 0.0 0.0 0.0
0.0 0.0 0.0 0.0 0.0 1.4 6.4 7.2 6.4 11.8 9.6 9.0 8.2 7.4 6.8 6.0 4.8 3.6 3.2 3.8 2.6 1.8 2.4 4.7 7.4 10.0 7.4 5.6 3.2 1.3 1.0 0.6 0.0 0.0 0.0 0.0 0.0 0.0 0.0 0.0 0.0 0.0 0.0 0.0 0.0 0.0 0.0 0.0 0.0 0.0 0.0 0.0 0.0 0.0
0.0 0.0 0.0 0.0 0.0 4.5 8.4 8.4 4.6 9.6 12.3 10.0 7.8 8.8 6.8 6.4 4.2 3.8 3.8 4.8 4.2 3.6 6.0 8.8 7.1 1.6 1.0 0.0 0.0 0.0 0.0 0.0 0.0 0.0 0.0 0.0 0.0 0.0 0.0 0.0 0.0 0.0 0.0 0.0 0.0 0.0 0.0 0.0 0.0 0.0 0.0 0.0 0.0 0.0
0.0 0.0 0.0 0.0 0.8 4.3 6.8 9.2 10.0 7.8 9.6 10.8 8.0 8.4 8.4 7.2 7.2 7.1 6.8 4.4 7.2 7.6 7.4 2.9 1.6 0.0 0.0 0.0 0.0 0.0 0.0 0.0 0.0 0.0 0.0 0.0 0.0 0.0 0.0 0.0 0.0 0.0 0.0 0.0 0.0 0.0 0.0 0.0 0.0 0.0 0.0 0.0 0.0 0.0
0.0 0.0 2.2 2.2 7.4 8.4 9.8 5.6 9.6 9.8 11.0 10.2 10.2 9.0 10.6 10.8 9.1 7.6 7.4 8.2 9.2 3.8 4.0 0.0 0.0 0.0 0.0 0.0 0.0 0.0 0.0 0.0 0.0 0.0 0.0 0.0 0.0 0.0 0.0 0.0 0.0 0.0 0.0 0.0 0.0 0.0 0.0 0.0 0.0 0.0 0.0 0.0 0.0 0.0
0.0 1.2 6.0 6.3 11.9 11.6 12.3 6.5 11.4 11.4 13.7 12.5 10.8 12.0 12.3 11.3 8.2 7.0 9.5 8.2 4.8 0.0 0.0 0.0 0.0 0.0 0.0 0.0 0.0 0.0 0.0 0.0 0.0 0.0 0.0 0.0 0.0 0.0 0.0 0.0 0.0 0.0 0.0 0.0 0.0 0.0 0.0 0.0 0.0 0.0 0.0 0.0 0.0 0.0
0.0 7.4 9.8 11.0 11.8 13.7 10.4 12.5 8.8 11.6 12.2 12.4 12.7 13.6 12.2 10.3 9.8 11.4 12.6 6.2 0.9 0.0 0.0 0.0 0.0 0.0 0.3 0.0 0.0 0.0 0.0 0.0 0.0 0.0 0.0 0.0 0.0 0.0 0.0 0.0 0.0 0.0 0.0 0.0 0.0 0.0 0.0 0.0 0.0 0.0 0.0 0.0 0.0 0.0
11.2 12.2 11.6 13.6 11.2 13.7 15.1 13.9 13.5 13.3 15.4 13.2 12.6 13.2 11.5 8.8 13.0 13.7 13.1 6.5 2.6 0.7 0.5 0.0 0.9 1.1 2.0 0.8 0.0 0.0 0.0 0.0 0.0 1.2 0.0 0.0 0.0 0.0 0.0 0.0 0.0 0.0 0.0 0.0 0.0 0.0 0.0 0.0 0.0 0.0 0.0 0.0 0.0 0.0
14.8 12.5 13.3 13.6 14.2 14.7 14.5 16.7 16.1 16.5 14.1 14.5 11.8 8.2 8.8 11.6 14.2 14.2 12.4 4.6 0.9 0.9 0.5 1.5 2.2 3.0 3.8 1.0 0.4 0.8 0.6 0.0 0.0 2.0 0.0 0.0 0.0 0.0 0.6 1.6 2.0 0.0 0.0 0.0 0.0 0.0 0.0 0.0 0.0 0.0 0.0 0.0 0.0 0.0
15.3 14.4 12.2 6.4 9.0 10.4 13.0 12.1 9.8 11.2 15.2 15.0 13.7 13.5 13.3 14.7 15.1 11.6 3.8 0.0 0.0 0.0 0.0 0.0 0.0 0.0 1.3 1.6 0.2 0.0 0.0 0.5 1.2 0.0 0.0 0.0 0.0 0.0 0.0 1.2 1.6 0.0 0.0 0.0 0.0 0.0 0.0 0.0 0.0 0.0 0.0 0.0 0.0 0.0
13.2 12.9 14.8 12.9 13.0 10.2 15.5 13.7 15.4 15.8 14.6 10.6 9.6 14.4 14.3 14.1 12.4 3.6 0.0 0.0 0.0 0.0 0.0 0.0 0.0 0.0 0.0 0.0 0.0 0.0 0.1 0.9 1.8 2.5 2.8 2.7 2.0 1.7 1.2 0.0 0.0 0.9 0.0 0.0 0.0 0.0 0.0 0.0 0.0 0.0 0.0 0.0 0.0 0.0
14.3 10.0 10.6 13.7 12.9 12.3 13.0 14.8 14.3 11.1 7.9 8.0 11.4 12.5 10.6 5.4 0.0 0.0 0.0 0.0 0.0 0.0 0.0 0.0 0.0 0.0 0.0 0.0 0.0 0.0 0.0 0.0 1.0 3.2 3.4 3.2 1.1 0.0 0.0 0.0 0.0 0.0 0.0 0.0 0.0 0.0 0.1 0.1 0.0 0.0 0.0 0.0 0.0 0.0
13.2 6.4 12.9 13.5 16.2 15.4 12.5 9.3 9.4 7.3 2.4 2.6 0.0 3.3 4.0 0.3 0.0 0.0 0.0 0.0 0.0 0.0 0.0 0.0 0.0 0.0 0.0 0.0 0.0 0.0 0.0 0.0 0.0 0.0 0.6 0.1 0.0 0.0 0.0 0.0 0.0 0.0 0.0 0.0 0.0 0.0 0.0 0.9 1.5 1.8 2.2 2.1 1.5 1.4
7.6 12.4 12.8 13.2 14.5 11.8 9.2 6.8 5.4 3.0 3.7 2.6 1.3 4.8 3.6 0.1 0.0 0.0 0.0 0.0 0.0 0.0 0.0 0.0 0.0 0.0 0.0 0.0 0.0 0.0 0.0 0.0 0.0 0.0 0.0 0.0 0.0 0.0 0.0 0.0 0.0 0.0 0.0 0.0 0.0 0.0 0.0 0.2 0.7 1.5 1.9 1.9 1.6 1.6
12.5 12.1 13.1 15.8 15.2 11.4 9.7 9.2 8.5 8.8 8.1 8.2 9.0 8.2 7.8 9.4 7.4 0.0 0.0 0.0 0.0 0.0 0.0 0.0 0.0 0.0 0.0 0.0 0.0 0.0 0.0 0.0 0.0 0.0 0.0 0.0 0.0 0.0 0.0 0.0 0.0 0.0 0.0 0.0 0.0 0.0 0.5 0.8 1.0 1.1 0.9 0.5 0.4 0.9
12.3 12.1 12.0 13.6 15.1 13.5 11.4 9.4 12.1 13.1 11.5 10.5 7.8 6.6 6.8 7.8 8.8 0.0 0.0 0.0 0.0 0.0 0.0 0.0 0.0 0.0 0.0 0.0 0.0 0.0 0.0 0.0 0.0 0.0 0.0 0.0 0.0 0.0 0.0 0.0 0.0 0.0 0.0 0.0 0.0 0.0 0.0 0.0 0.2 0.1 0.7 1.8 2.4 3.2